QPF
0.01 0.01 0.00 0.00 0.00 0.00 0.00 0.00 0.01 0.01 0.01 0.01 0.01 0.01 0.01 0.03 0.07 0.08 0.08 0.07 0.06 0.08 0.06 0.05 0.06 0.08 0.09 0.09 0.09 0.10 0.12 0.16 0.21 0.28 0.21 0.15 0.12 0.11 0.11 0.13 0.12 0.10 0.11 0.10
0.01 0.00 0.00 0.00 0.00 0.01 0.01 0.01 0.01 0.01 0.01 0.01 0.01 0.02 0.02 0.02 0.04 0.07 0.08 0.08 0.06 0.06 0.06 0.06 0.08 0.10 0.09 0.08 0.08 0.08 0.08 0.08 0.13 0.23 0.26 0.19 0.12 0.09 0.10 0.11 0.14 0.13 0.12 0.11
0.01 0.00 0.00 0.00 0.00 0.01 0.01 0.00 0.01 0.01 0.01 0.01 0.01 0.01 0.02 0.03 0.03 0.04 0.04 0.05 0.06 0.06 0.07 0.08 0.09 0.10 0.09 0.07 0.08 0.11 0.10 0.08 0.10 0.16 0.20 0.21 0.18 0.13 0.12 0.11 0.12 0.12 0.13 0.11
0.01 0.00 0.00 0.00 0.00 0.00 0.01 0.01 0.01 0.01 0.01 0.01 0.01 0.02 0.02 0.02 0.02 0.02 0.03 0.03 0.04 0.04 0.06 0.07 0.06 0.07 0.08 0.07 0.07 0.10 0.12 0.12 0.10 0.13 0.17 0.19 0.16 0.12 0.11 0.10 0.09 0.11 0.12 0.11
0.01 0.00 0.00 0.00 0.00 0.00 0.00 0.01 0.01 0.01 0.01 0.01 0.01 0.02 0.02 0.01 0.01 0.02 0.03 0.03 0.04 0.05 0.06 0.06 0.05 0.05 0.07 0.08 0.08 0.09 0.09 0.11 0.14 0.15 0.16 0.20 0.18 0.12 0.10 0.09 0.10 0.12 0.13 0.11
0.01 0.00 0.00 0.00 0.00 0.00 0.01 0.01 0.01 0.01 0.01 0.01 0.00 0.01 0.01 0.01 0.02 0.02 0.03 0.03 0.05 0.05 0.06 0.05 0.04 0.04 0.06 0.08 0.08 0.07 0.07 0.07 0.10 0.15 0.18 0.20 0.21 0.17 0.14 0.13 0.11 0.13 0.14 0.12
0.01 0.01 0.01 0.00 0.01 0.01 0.01 0.02 0.02 0.01 0.01 0.00 0.00 0.01 0.01 0.01 0.02 0.04 0.05 0.04 0.05 0.06 0.05 0.04 0.04 0.05 0.06 0.07 0.08 0.07 0.07 0.07 0.07 0.09 0.14 0.15 0.16 0.15 0.13 0.13 0.11 0.12 0.13 0.14
0.01 0.01 0.01 0.00 0.00 0.01 0.01 0.01 0.01 0.01 0.01 0.00 0.01 0.01 0.01 0.01 0.02 0.03 0.05 0.04 0.03 0.05 0.05 0.04 0.05 0.06 0.07 0.07 0.08 0.06 0.06 0.06 0.07 0.08 0.10 0.12 0.13 0.15 0.16 0.13 0.11 0.10 0.10 0.10
0.01 0.01 0.00 0.00 0.00 0.00 0.01 0.01 0.01 0.01 0.01 0.01 0.00 0.00 0.01 0.01 0.01 0.03 0.04 0.03 0.02 0.04 0.05 0.05 0.06 0.07 0.07 0.07 0.07 0.06 0.06 0.06 0.07 0.09 0.10 0.10 0.12 0.15 0.18 0.16 0.14 0.12 0.11 0.09
0.01 0.01 0.01 0.00 0.00 0.01 0.01 0.01 0.01 0.01 0.01 0.00 0.00 0.01 0.02 0.02 0.02 0.03 0.03 0.04 0.04 0.04 0.04 0.05 0.08 0.09 0.09 0.08 0.07 0.07 0.08 0.08 0.07 0.08 0.09 0.10 0.11 0.15 0.17 0.17 0.16 0.16 0.14 0.12
0.00 0.01 0.01 0.01 0.01 0.00 0.00 0.01 0.01 0.01 0.01 0.01 0.01 0.01 0.02 0.03 0.02 0.04 0.04 0.04 0.05 0.06 0.05 0.06 0.08 0.11 0.12 0.10 0.09 0.09 0.09 0.10 0.09 0.10 0.11 0.10 0.08 0.09 0.14 0.16 0.15 0.14 0.12 0.12
0.00 0.00 0.00 0.00 0.00 0.00 0.00 0.00 0.00 0.01 0.01 0.01 0.01 0.01 0.02 0.03 0.02 0.03 0.04 0.05 0.05 0.06 0.06 0.07 0.09 0.10 0.11 0.12 0.11 0.09 0.08 0.09 0.10 0.13 0.13 0.11 0.08 0.07 0.09 0.12 0.14 0.14 0.14 0.12
0.00 0.00 0.00 0.00 0.00 0.00 0.00 0.00 0.00 0.01 0.01 0.01 0.02 0.01 0.01 0.02 0.02 0.02 0.04 0.04 0.05 0.06 0.06 0.07 0.08 0.09 0.11 0.12 0.12 0.11 0.11 0.11 0.11 0.11 0.11 0.10 0.09 0.08 0.07 0.08 0.12 0.15 0.16 0.15
0.00 0.00 0.00 0.00 0.00 0.00 0.00 0.00 0.00 0.01 0.01 0.01 0.02 0.02 0.01 0.02 0.02 0.02 0.03 0.04 0.05 0.06 0.06 0.06 0.07 0.09 0.11 0.12 0.12 0.10 0.10 0.12 0.12 0.10 0.10 0.10 0.10 0.11 0.10 0.10 0.11 0.15 0.17 0.18
0.00 0.00 0.00 0.00 0.00 0.00 0.00 0.00 0.00 0.00 0.01 0.01 0.01 0.01 0.01 0.01 0.02 0.02 0.03 0.03 0.04 0.05 0.06 0.06 0.06 0.07 0.08 0.09 0.09 0.09 0.10 0.11 0.11 0.10 0.10 0.10 0.10 0.13 0.17 0.16 0.13 0.15 0.16 0.17
0.00 0.00 0.00 0.00 0.00 0.00 0.00 0.00 0.00 0.00 0.00 0.00 0.00 0.00 0.01 0.01 0.01 0.01 0.02 0.02 0.03 0.04 0.04 0.05 0.06 0.07 0.08 0.09 0.08 0.08 0.10 0.10 0.10 0.09 0.08 0.08 0.09 0.13 0.16 0.16 0.15 0.15 0.15 0.16
0.00 0.00 0.00 0.00 0.00 0.00 0.00 0.00 0.00 0.00 0.00 0.00 0.01 0.00 0.00 0.00 0.01 0.01 0.01 0.01 0.02 0.02 0.03 0.03 0.05 0.06 0.06 0.06 0.05 0.05 0.07 0.08 0.07 0.07 0.06 0.07 0.08 0.09 0.10 0.12 0.13 0.13 0.14 0.14
0.00 0.00 0.00 0.00 0.00 0.00 0.00 0.00 0.00 0.00 0.00 0.00 0.00 0.00 0.00 0.00 0.00 0.00 0.00 0.01 0.01 0.02 0.02 0.02 0.03 0.04 0.04 0.04 0.04 0.03 0.03 0.04 0.04 0.05 0.05 0.05 0.06 0.06 0.07 0.08 0.10 0.11 0.12 0.12
0.00 0.00 0.00 0.00 0.00 0.00 0.00 0.00 0.00 0.00 0.00 0.00 0.00 0.00 0.00 0.00 0.00 0.00 0.00 0.00 0.01 0.01 0.01 0.02 0.02 0.03 0.02 0.02 0.03 0.02 0.02 0.02 0.03 0.03 0.03 0.04 0.04 0.04 0.04 0.06 0.06 0.07 0.08 0.08
0.00 0.00 0.01 0.00 0.00 0.00 0.00 0.00 0.00 0.00 0.00 0.00 0.00 0.00 0.00 0.00 0.00 0.00 0.00 0.00 0.00 0.01 0.01 0.01 0.02 0.02 0.02 0.02 0.02 0.01 0.01 0.02 0.03 0.03 0.03 0.02 0.02 0.02 0.02 0.03 0.04 0.04 0.04 0.04
0.00 0.00 0.01 0.00 0.00 0.00 0.00 0.00 0.00 0.00 0.00 0.00 0.00 0.00 0.00 0.00 0.00 0.00 0.00 0.00 0.00 0.01 0.01 0.02 0.02 0.02 0.02 0.02 0.02 0.01 0.01 0.02 0.03 0.03 0.02 0.02 0.02 0.01 0.01 0.02 0.03 0.04 0.03 0.03
0.00 0.00 0.00 0.00 0.00 0.00 0.00 0.00 0.00 0.00 0.00 0.00 0.00 0.00 0.00 0.00 0.00 0.00 0.00 0.00 0.00 0.01 0.01 0.02 0.02 0.02 0.02 0.02 0.02 0.01 0.02 0.02 0.02 0.02 0.03 0.03 0.03 0.02 0.01 0.01 0.02 0.03 0.04 0.03
0.00 0.00 0.00 0.00 0.00 0.00 0.00 0.00 0.00 0.00 0.00 0.00 0.00 0.00 0.00 0.00 0.00 0.00 0.00 0.00 0.00 0.00 0.01 0.01 0.01 0.01 0.01 0.02 0.02 0.02 0.02 0.02 0.02 0.02 0.02 0.02 0.03 0.03 0.03 0.03 0.04 0.04 0.05 0.05
0.00 0.00 0.00 0.00 0.00 0.00 0.00 0.00 0.00 0.00 0.00 0.00 0.00 0.00 0.00 0.00 0.00 0.00 0.00 0.00 0.00 0.00 0.00 0.00 0.01 0.01 0.01 0.01 0.01 0.02 0.02 0.02 0.02 0.02 0.01 0.01 0.01 0.02 0.02 0.03 0.04 0.05 0.06 0.06
0.00 0.00 0.00 0.00 0.00 0.00 0.00 0.00 0.00 0.00 0.00 0.00 0.00 0.00 0.00 0.00 0.00 0.00 0.00 0.00 0.00 0.00 0.00 0.00 0.00 0.00 0.00 0.01 0.01 0.01 0.01 0.01 0.01 0.01 0.01 0.01 0.01 0.01 0.01 0.02 0.02 0.03 0.05 0.06
0.00 0.00 0.00 0.00 0.00 0.00 0.00 0.00 0.00 0.00 0.00 0.00 0.00 0.00 0.00 0.00 0.00 0.00 0.00 0.00 0.00 0.00 0.00 0.00 0.00 0.00 0.00 0.00 0.01 0.01 0.01 0.01 0.01 0.01 0.01 0.01 0.01 0.01 0.02 0.02 0.03 0.03 0.03 0.05
MSLP
1016.73 1016.85 1016.86 1016.78 1016.64 1016.48 1016.30 1016.14 1015.98 1015.83 1015.65 1015.44 1015.19 1014.91 1014.60 1014.29 1014.01 1013.76 1013.55 1013.36 1013.17 1012.93 1012.62 1012.21 1011.69 1011.08 1010.43 1009.79 1009.21 1008.75 1008.45 1008.30 1008.29 1008.39 1008.54 1008.69 1008.80 1008.85 1008.83 1008.78 1008.73 1008.73 1008.83 1009.07
1016.95 1017.04 1017.03 1016.93 1016.76 1016.56 1016.35 1016.15 1015.95 1015.75 1015.55 1015.32 1015.07 1014.80 1014.53 1014.27 1014.04 1013.85 1013.69 1013.55 1013.39 1013.16 1012.84 1012.39 1011.81 1011.13 1010.38 1009.63 1008.93 1008.35 1007.93 1007.68 1007.60 1007.64 1007.77 1007.92 1008.06 1008.14 1008.17 1008.15 1008.12 1008.12 1008.20 1008.40
1016.97 1017.07 1017.07 1016.98 1016.83 1016.64 1016.43 1016.21 1015.99 1015.76 1015.53 1015.30 1015.05 1014.80 1014.57 1014.36 1014.20 1014.07 1013.97 1013.87 1013.73 1013.51 1013.17 1012.68 1012.04 1011.27 1010.42 1009.55 1008.73 1008.02 1007.47 1007.10 1006.92 1006.90 1006.98 1007.12 1007.27 1007.39 1007.46 1007.49 1007.50 1007.54 1007.63 1007.82
1016.81 1016.93 1016.96 1016.92 1016.81 1016.66 1016.46 1016.25 1016.02 1015.78 1015.54 1015.31 1015.08 1014.87 1014.69 1014.55 1014.46 1014.41 1014.37 1014.31 1014.19 1013.97 1013.60 1013.07 1012.36 1011.50 1010.55 1009.56 1008.61 1007.76 1007.08 1006.58 1006.29 1006.16 1006.18 1006.28 1006.42 1006.56 1006.68 1006.76 1006.84 1006.92 1007.06 1007.28
1016.49 1016.64 1016.72 1016.73 1016.68 1016.57 1016.41 1016.22 1015.99 1015.76 1015.53 1015.30 1015.11 1014.95 1014.84 1014.79 1014.78 1014.81 1014.84 1014.83 1014.74 1014.51 1014.12 1013.53 1012.76 1011.82 1010.77 1009.67 1008.59 1007.61 1006.78 1006.14 1005.70 1005.46 1005.37 1005.40 1005.51 1005.64 1005.78 1005.92 1006.06 1006.21 1006.42 1006.69
1016.10 1016.27 1016.40 1016.46 1016.46 1016.39 1016.27 1016.10 1015.89 1015.67 1015.45 1015.27 1015.12 1015.03 1015.01 1015.05 1015.14 1015.26 1015.36 1015.40 1015.33 1015.11 1014.69 1014.06 1013.23 1012.22 1011.08 1009.88 1008.68 1007.56 1006.59 1005.79 1005.20 1004.80 1004.58 1004.50 1004.52 1004.62 1004.75 1004.92 1005.11 1005.34 1005.63 1005.99
1015.76 1015.93 1016.08 1016.17 1016.20 1016.17 1016.07 1015.91 1015.72 1015.52 1015.33 1015.19 1015.10 1015.09 1015.16 1015.31 1015.50 1015.71 1015.88 1015.97 1015.93 1015.72 1015.29 1014.63 1013.75 1012.68 1011.47 1010.19 1008.89 1007.65 1006.54 1005.58 1004.81 1004.24 1003.85 1003.61 1003.51 1003.52 1003.61 1003.77 1004.00 1004.29 1004.66 1005.11
1015.55 1015.70 1015.84 1015.94 1015.98 1015.95 1015.86 1015.71 1015.54 1015.35 1015.20 1015.10 1015.08 1015.15 1015.32 1015.56 1015.84 1016.13 1016.38 1016.52 1016.51 1016.30 1015.87 1015.19 1014.29 1013.19 1011.94 1010.59 1009.22 1007.88 1006.64 1005.54 1004.59 1003.83 1003.25 1002.83 1002.56 1002.44 1002.44 1002.55 1002.77 1003.09 1003.53 1004.06
1015.52 1015.64 1015.75 1015.83 1015.85 1015.81 1015.71 1015.56 1015.39 1015.23 1015.10 1015.05 1015.09 1015.23 1015.48 1015.80 1016.16 1016.52 1016.82 1017.00 1017.02 1016.83 1016.40 1015.73 1014.82 1013.72 1012.46 1011.09 1009.68 1008.27 1006.93 1005.70 1004.60 1003.65 1002.86 1002.25 1001.79 1001.50 1001.37 1001.39 1001.56 1001.87 1002.33 1002.92
1015.68 1015.75 1015.82 1015.85 1015.84 1015.78 1015.66 1015.50 1015.33 1015.18 1015.08 1015.06 1015.15 1015.35 1015.65 1016.03 1016.44 1016.85 1017.18 1017.39 1017.43 1017.26 1016.85 1016.20 1015.33 1014.25 1013.02 1011.67 1010.26 1008.83 1007.43 1006.11 1004.88 1003.77 1002.80 1001.99 1001.34 1000.86 1000.57 1000.46 1000.54 1000.80 1001.24 1001.84
1015.97 1015.99 1016.01 1015.99 1015.94 1015.84 1015.69 1015.52 1015.35 1015.21 1015.13 1015.15 1015.26 1015.50 1015.83 1016.24 1016.68 1017.11 1017.46 1017.69 1017.74 1017.60 1017.22 1016.62 1015.80 1014.79 1013.62 1012.33 1010.97 1009.57 1008.16 1006.79 1005.49 1004.27 1003.16 1002.18 1001.35 1000.70 1000.23 999.97 999.93 1000.09 1000.46 1001.01
1016.30 1016.27 1016.23 1016.17 1016.08 1015.94 1015.78 1015.60 1015.43 1015.30 1015.24 1015.27 1015.41 1015.66 1016.01 1016.42 1016.87 1017.30 1017.65 1017.89 1017.96 1017.85 1017.52 1016.98 1016.24 1015.32 1014.25 1013.06 1011.79 1010.46 1009.10 1007.75 1006.42 1005.14 1003.95 1002.85 1001.89 1001.08 1000.47 1000.05 999.86 999.90 1000.15 1000.61
1016.57 1016.50 1016.42 1016.31 1016.18 1016.02 1015.84 1015.66 1015.50 1015.39 1015.34 1015.39 1015.54 1015.80 1016.15 1016.56 1017.00 1017.42 1017.77 1018.02 1018.11 1018.03 1017.76 1017.30 1016.66 1015.86 1014.91 1013.85 1012.70 1011.48 1010.21 1008.92 1007.63 1006.36 1005.13 1003.98 1002.94 1002.03 1001.30 1000.76 1000.43 1000.32 1000.43 1000.75
1016.71 1016.60 1016.48 1016.34 1016.18 1016.00 1015.82 1015.65 1015.50 1015.41 1015.39 1015.45 1015.62 1015.88 1016.23 1016.63 1017.07 1017.48 1017.84 1018.10 1018.22 1018.20 1018.00 1017.63 1017.09 1016.41 1015.60 1014.68 1013.66 1012.57 1011.42 1010.24 1009.03 1007.82 1006.62 1005.48 1004.42 1003.47 1002.67 1002.04 1001.59 1001.35 1001.32 1001.48
1016.69 1016.54 1016.38 1016.21 1016.03 1015.85 1015.67 1015.51 1015.38 1015.31 1015.32 1015.41 1015.60 1015.87 1016.23 1016.64 1017.08 1017.50 1017.87 1018.16 1018.33 1018.36 1018.24 1017.97 1017.54 1016.98 1016.30 1015.51 1014.63 1013.67 1012.66 1011.59 1010.49 1009.38 1008.27 1007.19 1006.17 1005.24 1004.42 1003.74 1003.22 1002.88 1002.71 1002.72
1016.52 1016.34 1016.15 1015.95 1015.75 1015.55 1015.38 1015.23 1015.13 1015.09 1015.13 1015.26 1015.47 1015.78 1016.15 1016.59 1017.05 1017.50 1017.90 1018.23 1018.46 1018.56 1018.52 1018.34 1018.01 1017.56 1016.99 1016.31 1015.55 1014.72 1013.82 1012.87 1011.89 1010.90 1009.90 1008.92 1007.98 1007.11 1006.33 1005.66 1005.12 1004.71 1004.45 1004.32
1016.25 1016.04 1015.81 1015.58 1015.36 1015.15 1014.98 1014.84 1014.77 1014.76 1014.84 1015.01 1015.26 1015.61 1016.02 1016.50 1016.99 1017.48 1017.94 1018.32 1018.61 1018.78 1018.83 1018.73 1018.49 1018.12 1017.64 1017.06 1016.38 1015.64 1014.84 1013.99 1013.13 1012.24 1011.36 1010.50 1009.68 1008.90 1008.20 1007.58 1007.05 1006.63 1006.31 1006.10
1015.96 1015.71 1015.44 1015.18 1014.93 1014.71 1014.53 1014.40 1014.35 1014.37 1014.49 1014.70 1015.01 1015.40 1015.87 1016.39 1016.93 1017.48 1017.99 1018.43 1018.79 1019.03 1019.14 1019.11 1018.95 1018.64 1018.22 1017.70 1017.09 1016.41 1015.67 1014.91 1014.12 1013.34 1012.56 1011.81 1011.10 1010.44 1009.83 1009.29 1008.82 1008.42 1008.10 1007.84
1015.70 1015.40 1015.10 1014.80 1014.52 1014.28 1014.09 1013.97 1013.93 1013.99 1014.15 1014.40 1014.76 1015.20 1015.72 1016.29 1016.89 1017.49 1018.05 1018.56 1018.97 1019.27 1019.44 1019.47 1019.35 1019.10 1018.72 1018.24 1017.66 1017.02 1016.32 1015.60 1014.88 1014.16 1013.47 1012.82 1012.21 1011.65 1011.14 1010.69 1010.29 1009.95 1009.64 1009.38
1015.49 1015.16 1014.81 1014.47 1014.16 1013.90 1013.71 1013.59 1013.57 1013.66 1013.86 1014.16 1014.56 1015.05 1015.61 1016.23 1016.87 1017.51 1018.12 1018.67 1019.13 1019.48 1019.69 1019.76 1019.69 1019.47 1019.13 1018.67 1018.12 1017.50 1016.83 1016.14 1015.45 1014.78 1014.15 1013.57 1013.03 1012.56 1012.14 1011.77 1011.44 1011.15 1010.89 1010.65
1015.35 1014.97 1014.58 1014.21 1013.87 1013.60 1013.40 1013.29 1013.30 1013.42 1013.65 1013.99 1014.43 1014.96 1015.56 1016.21 1016.88 1017.54 1018.18 1018.75 1019.24 1019.62 1019.87 1019.97 1019.94 1019.76 1019.44 1019.02 1018.49 1017.90 1017.25 1016.59 1015.93 1015.29 1014.70 1014.15 1013.67 1013.25 1012.89 1012.58 1012.30 1012.07 1011.84 1011.63
1015.23 1014.80 1014.38 1013.98 1013.63 1013.35 1013.16 1013.08 1013.11 1013.26 1013.53 1013.90 1014.38 1014.93 1015.55 1016.21 1016.89 1017.57 1018.20 1018.78 1019.28 1019.67 1019.95 1020.08 1020.08 1019.94 1019.67 1019.29 1018.81 1018.25 1017.64 1017.01 1016.38 1015.77 1015.20 1014.69 1014.23 1013.84 1013.51 1013.22 1012.99 1012.78 1012.58 1012.38
1015.10 1014.63 1014.17 1013.76 1013.41 1013.14 1012.98 1012.93 1012.99 1013.18 1013.48 1013.88 1014.38 1014.95 1015.57 1016.23 1016.90 1017.55 1018.18 1018.75 1019.24 1019.63 1019.92 1020.08 1020.12 1020.03 1019.81 1019.49 1019.08 1018.58 1018.03 1017.46 1016.87 1016.30 1015.75 1015.26 1014.82 1014.43 1014.10 1013.83 1013.59 1013.38 1013.18 1012.98
1014.92 1014.41 1013.94 1013.53 1013.19 1012.95 1012.83 1012.81 1012.92 1013.14 1013.47 1013.90 1014.40 1014.97 1015.59 1016.22 1016.87 1017.50 1018.09 1018.63 1019.11 1019.50 1019.79 1019.97 1020.05 1020.01 1019.87 1019.63 1019.30 1018.89 1018.42 1017.92 1017.40 1016.88 1016.38 1015.91 1015.47 1015.09 1014.75 1014.46 1014.21 1013.97 1013.75 1013.53
1014.69 1014.15 1013.67 1013.28 1012.98 1012.78 1012.69 1012.72 1012.87 1013.12 1013.47 1013.91 1014.42 1014.97 1015.57 1016.18 1016.79 1017.38 1017.94 1018.44 1018.89 1019.27 1019.56 1019.76 1019.88 1019.90 1019.83 1019.67 1019.44 1019.14 1018.78 1018.37 1017.94 1017.49 1017.05 1016.61 1016.20 1015.82 1015.47 1015.15 1014.86 1014.60 1014.34 1014.07
1014.40 1013.86 1013.39 1013.03 1012.77 1012.62 1012.58 1012.65 1012.83 1013.10 1013.46 1013.90 1014.39 1014.92 1015.49 1016.07 1016.63 1017.19 1017.71 1018.18 1018.60 1018.96 1019.25 1019.47 1019.61 1019.68 1019.68 1019.61 1019.48 1019.29 1019.04 1018.75 1018.42 1018.06 1017.69 1017.31 1016.93 1016.56 1016.21 1015.88 1015.56 1015.25 1014.95 1014.64
Thickness
5529 5534 5538 5540 5539 5541 5541 5541 5543 5545 5544 5543 5548 5552 5556 5555 5554 5555 5556 5559 5562 5564 5568 5570 5573 5577 5582 5585 5591 5596 5602 5607 5612 5617 5622 5628 5632 5636 5640 5644 5649 5651 5652 5654
5527 5530 5533 5532 5532 5531 5533 5534 5541 5542 5540 5542 5546 5551 5555 5553 5550 5550 5552 5554 5557 5561 5565 5567 5569 5573 5575 5579 5583 5588 5593 5598 5603 5608 5613 5618 5623 5627 5631 5636 5639 5642 5644 5646
5527 5528 5528 5528 5528 5529 5533 5535 5538 5537 5538 5540 5541 5555 5555 5553 5550 5549 5550 5551 5553 5555 5558 5563 5566 5568 5569 5573 5576 5580 5585 5590 5595 5600 5604 5608 5611 5615 5620 5625 5628 5633 5635 5637
5522 5523 5524 5527 5528 5529 5534 5535 5532 5531 5534 5542 5538 5550 5556 5552 5550 5548 5548 5548 5549 5551 5553 5555 5558 5561 5563 5565 5568 5573 5577 5582 5587 5592 5596 5600 5605 5610 5614 5617 5621 5625 5627 5629
5521 5521 5523 5526 5528 5527 5530 5529 5528 5528 5528 5533 5539 5540 5556 5549 5546 5545 5545 5545 5545 5546 5548 5549 5551 5554 5556 5558 5561 5565 5569 5573 5578 5583 5588 5592 5597 5602 5606 5609 5613 5616 5618 5620
5518 5518 5521 5524 5525 5524 5524 5525 5526 5526 5529 5537 5539 5540 5554 5548 5541 5541 5541 5541 5540 5542 5544 5545 5546 5547 5550 5552 5554 5556 5560 5564 5569 5574 5580 5584 5589 5593 5596 5600 5604 5607 5610 5612
5518 5518 5518 5519 5523 5523 5523 5527 5535 5538 5541 5548 5536 5538 5548 5545 5538 5535 5536 5537 5537 5538 5539 5540 5541 5542 5542 5543 5545 5548 5553 5557 5561 5567 5571 5576 5581 5584 5588 5592 5595 5599 5601 5604
5518 5520 5518 5518 5522 5523 5522 5526 5534 5543 5550 5551 5536 5542 5550 5541 5536 5533 5533 5533 5533 5534 5534 5534 5534 5535 5536 5537 5540 5543 5547 5551 5555 5560 5564 5569 5573 5577 5581 5584 5587 5591 5593 5595
5519 5518 5515 5515 5517 5521 5523 5525 5522 5525 5525 5536 5549 5548 5549 5539 5536 5533 5532 5531 5530 5529 5529 5528 5528 5529 5531 5533 5535 5538 5541 5545 5548 5553 5557 5562 5565 5569 5573 5576 5578 5580 5583 5586
5513 5512 5515 5513 5516 5515 5519 5520 5520 5524 5533 5547 5554 5552 5550 5539 5535 5533 5531 5529 5527 5525 5524 5524 5524 5525 5525 5527 5529 5532 5535 5538 5541 5545 5550 5554 5557 5561 5565 5568 5570 5572 5574 5576
5507 5511 5514 5516 5519 5521 5517 5515 5517 5521 5524 5538 5549 5555 5544 5538 5533 5530 5528 5525 5523 5521 5519 5519 5520 5520 5521 5523 5525 5527 5529 5532 5536 5539 5543 5547 5550 5554 5558 5561 5563 5564 5566 5568
5506 5512 5515 5516 5513 5511 5516 5519 5518 5524 5523 5523 5536 5546 5536 5534 5530 5526 5524 5521 5519 5517 5516 5516 5516 5517 5518 5519 5521 5522 5524 5527 5530 5533 5537 5540 5543 5547 5551 5553 5555 5556 5558 5559
5507 5511 5519 5523 5516 5511 5513 5514 5513 5513 5515 5522 5533 5545 5531 5529 5528 5525 5522 5519 5517 5515 5514 5514 5514 5514 5515 5515 5516 5518 5519 5522 5524 5527 5530 5533 5536 5539 5543 5545 5546 5548 5550 5551
5508 5511 5517 5529 5530 5521 5516 5515 5512 5510 5518 5526 5530 5539 5535 5530 5527 5525 5522 5519 5516 5514 5512 5511 5511 5511 5511 5511 5511 5512 5513 5515 5517 5521 5524 5526 5528 5531 5534 5536 5538 5541 5542 5543
5507 5510 5510 5514 5516 5514 5517 5519 5515 5512 5522 5525 5534 5529 5534 5531 5527 5524 5521 5518 5515 5512 5510 5508 5507 5507 5506 5506 5507 5508 5508 5510 5512 5515 5517 5518 5521 5523 5526 5528 5530 5532 5533 5534
5503 5505 5505 5511 5513 5513 5516 5524 5522 5520 5520 5523 5525 5529 5534 5529 5524 5522 5519 5516 5514 5511 5508 5505 5503 5502 5502 5502 5502 5503 5503 5504 5506 5509 5510 5512 5514 5515 5517 5518 5521 5522 5523 5523
5501 5502 5508 5522 5515 5515 5532 5537 5529 5527 5528 5528 5530 5537 5530 5525 5522 5521 5518 5515 5513 5510 5507 5503 5501 5499 5498 5497 5497 5497 5498 5499 5501 5503 5504 5505 5507 5507 5507 5508 5510 5510 5511 5512
5498 5501 5505 5514 5518 5526 5547 5532 5532 5531 5531 5530 5532 5532 5529 5527 5522 5519 5516 5513 5512 5508 5505 5502 5499 5497 5495 5494 5493 5493 5493 5495 5496 5496 5497 5497 5497 5498 5499 5500 5500 5500 5501 5501
5494 5500 5505 5510 5522 5536 5541 5530 5527 5528 5535 5535 5532 5531 5526 5521 5518 5522 5515 5511 5509 5506 5503 5500 5496 5494 5492 5490 5489 5489 5488 5489 5490 5490 5489 5489 5489 5490 5491 5491 5491 5491 5491 5490
5485 5492 5500 5503 5514 5534 5545 5529 5523 5526 5536 5536 5531 5528 5523 5517 5527 5531 5517 5509 5506 5502 5499 5495 5492 5490 5488 5486 5485 5484 5484 5483 5483 5482 5482 5482 5482 5483 5482 5482 5482 5482 5481 5480
5491 5490 5494 5502 5512 5535 5535 5521 5519 5531 5541 5530 5526 5525 5520 5520 5525 5520 5511 5506 5502 5499 5495 5491 5488 5486 5484 5481 5480 5480 5479 5478 5476 5476 5476 5476 5476 5475 5475 5474 5474 5473 5473 5472
5504 5504 5500 5504 5510 5531 5524 5517 5525 5535 5527 5523 5522 5520 5517 5516 5512 5508 5504 5502 5498 5494 5491 5487 5484 5482 5479 5476 5475 5475 5474 5472 5471 5470 5470 5470 5469 5468 5467 5467 5466 5465 5465 5464
5500 5510 5516 5517 5530 5527 5518 5523 5523 5518 5518 5518 5517 5514 5511 5508 5506 5503 5500 5497 5494 5491 5487 5483 5480 5477 5475 5472 5470 5470 5468 5466 5465 5464 5464 5463 5462 5461 5459 5459 5458 5458 5457 5456
5500 5490 5496 5504 5520 5520 5516 5515 5513 5511 5511 5512 5510 5507 5505 5503 5502 5499 5496 5493 5489 5486 5482 5478 5475 5473 5471 5467 5465 5463 5461 5458 5457 5457 5456 5455 5454 5453 5451 5450 5449 5447 5446 5445
5507 5489 5491 5503 5515 5514 5518 5513 5511 5508 5506 5504 5502 5500 5499 5497 5496 5493 5490 5487 5484 5480 5476 5472 5469 5468 5466 5462 5459 5456 5453 5450 5449 5449 5448 5447 5445 5443 5441 5439 5437 5435 5434 5431
5498 5497 5502 5517 5519 5515 5519 5514 5507 5503 5501 5499 5497 5495 5493 5491 5490 5487 5484 5481 5477 5473 5469 5466 5463 5461 5459 5456 5453 5449 5446 5443 5441 5440 5439 5437 5435 5432 5430 5429 5427 5424 5421 5420